Rocky Mount, NC

7:42 PM EDT on March 27, 2017 (GMT -0400)
Rocky Mount-Wilson Regional

Weather History for KRWI - May, 2014

Change the Weather History Date:

Sunday, May 4, 2014

  Actual Average Record
Temperature  
Mean Temperature 68 °F -  
Max Temperature 82 °F 76 °F 91 °F (1965)
Min Temperature 54 °F 51 °F 38 °F (1986)
Cooling Degree Days 3    
Growing Degree Days 18 (Base 50)    
Moisture  
Dew Point 48 °F    
Average Humidity 49    
Maximum Humidity 72    
Minimum Humidity 28    
Precipitation  
Precipitation 0.00 in - - ()
Sea Level Pressure  
Sea Level Pressure 29.91 in    
Wind  
Wind Speed 6 mph (WSW)    
Max Wind Speed 14 mph    
Max Gust Speed 21 mph    
Visibility 10 miles    
Events      
Averages and records for this station are not official NWS values.
T = Trace of Precipitation, MM = Missing Value Source: NWS Daily Summary

Daily Weather History Graph

Daily Weather History Graph

Search for Another Location

Airport or City:

Trip Planner

Search our weather history database for the weather conditions in past years. The results will help you decide how hot, cold, wet, or windy it might be!

Date:

Astronomy

May. 04, 2014 Rise Set
Actual Time 6:16 AM EDT 8:01 PM EDT
Civil Twilight 5:48 AM EDT 8:28 PM EDT
Nautical Twilight 5:15 AM EDT 9:02 PM EDT
Astronomical Twilight 4:39 AM EDT 9:37 PM EDT
Moon 10:39 AM EDT (5/4) 12:03 AM EDT (5/4)
Length of Visible Light 14h 40m
Length of Day
13h 44m
Waxing Crescent, 27% of the Moon is Illuminated
May 4
Waxing Crescent
May 6
First Quarter
May 14
Full
May 21
Last Quarter
May 28
New

Hourly Weather History & Observations

Time (EDT) Temp. Dew Point Humidity Pressure Visibility Wind Dir Wind Speed Gust Speed Precip Events Conditions
12:53 AM 59.0 °F 46.0 °F 62% 29.92 in 10.0 mi SSW 5.8 mph - N/A   Clear
1:53 AM 59.0 °F 46.0 °F 62% 29.91 in 10.0 mi SSW 5.8 mph - N/A   Clear
2:53 AM 60.1 °F 45.0 °F 57% 29.91 in 10.0 mi WSW 5.8 mph - N/A   Clear
3:53 AM 59.0 °F 45.0 °F 60% 29.93 in 10.0 mi WSW 4.6 mph - N/A   Clear
4:53 AM 57.0 °F 45.0 °F 64% 29.94 in 10.0 mi WNW 5.8 mph - N/A   Clear
5:53 AM 57.0 °F 45.0 °F 64% 29.95 in 10.0 mi West 3.5 mph - N/A   Clear
6:53 AM 54.0 °F 45.0 °F 72% 29.97 in 10.0 mi Calm Calm - N/A   Clear
7:53 AM 60.1 °F 46.9 °F 62% 29.99 in 10.0 mi Calm Calm - N/A   Clear
8:53 AM 66.9 °F 48.0 °F 51% 29.99 in 10.0 mi NW 6.9 mph - N/A   Clear
9:53 AM 73.0 °F 46.9 °F 39% 29.99 in 10.0 mi WNW 9.2 mph - N/A   Clear
10:53 AM 73.9 °F 44.1 °F 34% 29.98 in 10.0 mi Variable 5.8 mph - N/A   Clear
11:53 AM 75.9 °F 45.0 °F 33% 29.96 in 10.0 mi West 11.5 mph - N/A   Clear
12:53 PM 78.1 °F 44.1 °F 30% 29.93 in 10.0 mi West 9.2 mph - N/A   Clear
1:53 PM 81.0 °F 46.0 °F 29% 29.90 in 10.0 mi WNW 13.8 mph - N/A   Clear
2:53 PM 82.0 °F 46.0 °F 28% 29.87 in 10.0 mi WSW 12.7 mph 19.6 mph N/A   Clear
3:53 PM 82.0 °F 46.9 °F 29% 29.85 in 10.0 mi West 11.5 mph 20.7 mph N/A   Clear
4:53 PM 82.9 °F 48.0 °F 29% 29.82 in 10.0 mi West 8.1 mph - N/A   Clear
5:53 PM 82.9 °F 48.9 °F 31% 29.81 in 10.0 mi WSW 10.4 mph - N/A   Clear
7:53 PM 73.0 °F 54.0 °F 51% 29.82 in 10.0 mi Calm Calm - N/A   Clear
8:53 PM 69.1 °F 54.0 °F 58% 29.82 in 10.0 mi SSW 4.6 mph - N/A   Clear
9:53 PM 70.0 °F 52.0 °F 53% 29.84 in 10.0 mi SSW 3.5 mph - N/A   Clear
10:53 PM 66.0 °F 52.0 °F 60% 29.86 in 10.0 mi Calm Calm - N/A   Clear
11:53 PM 63.0 °F 54.0 °F 72% 29.88 in 10.0 mi Calm Calm - N/A   Clear